Dewpoint
-1 -1 -3 -4 -4 -4 -4 -5 -1 -4 -11 -12 -11 -9 -8 -5 -3 -2 1 2 2 2 2 2 0 -2 -3 -3 -4 -7 -9 -9 -8 -6 -5 -6 -6 -6 -7 -6 -6 -6 -6 -5
4 -1 -1 -2 -4 -7 -6 -5 -8 -9 -8 -11 -8 -7 -6 -5 -2 -2 -0 1 2 2 1 0 -1 -3 -3 -3 -6 -7 -8 -8 -7 -6 -7 -7 -6 -6 -6 -7 -7 -7 -7 -7
1 1 1 5 2 -3 -6 -6 -6 -3 -6 -5 -4 -5 -5 -4 -2 -1 -0 1 1 1 -0 -1 -2 -3 -3 -5 -7 -7 -8 -8 -7 -7 -8 -7 -7 -8 -8 -8 -7 -7 -8 -8
3 4 8 -5 -6 -7 -4 -6 -7 -7 -7 -8 -6 -3 -3 -2 -3 -1 -1 -0 0 0 -0 -1 -2 -4 -4 -6 -7 -8 -8 -8 -8 -8 -8 -9 -9 -9 -9 -8 -8 -8 -8 -8
9 1 -4 -7 -8 -6 -5 -6 -6 -6 -8 -7 -3 -1 -3 -2 -2 -1 -1 -1 -1 -0 0 -0 -2 -5 -5 -7 -8 -9 -6 -8 -8 -11 -11 -10 -10 -10 -9 -8 -8 -8 -8 -8
3 9 9 -1 -4 -2 -3 -5 -6 -6 -5 -5 -3 -0 -4 -1 -1 -2 -2 -1 -0 0 0 -0 -3 -6 -6 -8 -7 -6 -9 -8 -10 -11 -11 -11 -11 -10 -9 -8 -8 -8 -8 -8
5 8 3 -4 -4 -3 -2 -0 -3 -2 -4 -3 -2 -3 0 1 -0 -1 -1 -0 0 1 1 -1 -3 -7 -8 -4 -8 -8 -9 -9 -10 -11 -10 -9 -9 -8 -7 -7 -7 -6 -6 -7
6 8 8 -6 -3 1 1 -2 -3 -2 -2 -1 0 -0 -0 0 0 -0 0 1 1 1 -2 -5 -7 -7 -5 -4 -6 -8 -9 -9 -9 -9 -8 -7 -6 -6 -6 -7 -6 -5 -5 -6
1 1 -2 -4 -4 -3 -1 -1 -2 -2 -2 -1 -1 -1 -0 -0 1 -0 -0 -0 -2 -4 -7 -7 -5 -4 -3 -7 -5 -7 -18 -14 -8 -7 -6 -6 -6 -6 -6 -6 -6 -6 -5 -6
1 -4 -4 -4 -4 -3 -2 -2 -1 -0 0 1 1 1 1 1 1 -2 -3 -6 -7 -6 -6 -5 -3 -1 -2 -6 -13 -20 -17 -13 -11 -11 -7 -9 -6 -6 -7 -7 -6 -6 -5 -6
-0 -3 -5 -3 -3 -1 -1 0 1 2 2 2 3 2 2 2 -2 -5 -7 -7 -5 -2 -1 -1 -4 -6 -8 -12 -18 -16 -16 -16 -12 -11 -6 -6 -6 -6 -5 -6 -6 -5 -6 -6
2 -1 0 -1 1 2 3 3 4 4 3 2 1 2 0 -4 -5 -2 -2 -1 -0 -1 -2 -4 -7 -11 -16 -17 -16 -15 -15 -13 -9 -6 -5 -5 -6 -5 -5 -6 -7 -6 -7 -7
1 2 2 2 3 2 1 0 -0 -0 -1 -2 -2 -2 -1 -1 -1 -1 -1 -1 -2 -3 -5 -9 -12 -15 -17 -15 -15 -14 -13 -13 -11 -6 -5 -6 -6 -6 -6 -5 -5 -6 -8 -8
3 4 3 2 1 0 0 1 1 1 1 0 -0 -0 -0 -1 -1 -1 -2 -3 -5 -8 -11 -13 -13 -15 -14 -13 -13 -13 -13 -10 -7 -5 -5 -6 -6 -6 -6 -6 -6 -6 -6 -6
1 2 1 -0 -0 0 1 1 0 -1 -1 -1 -1 -1 -2 -2 -3 -4 -4 -5 -8 -10 -13 -11 -11 -14 -9 -12 -11 -11 -8 -7 -8 -6 -5 -5 -6 -6 -6 -6 -6 -6 -6 -7
1 -0 -0 -0 -0 0 -0 -1 -2 -1 -1 -1 -2 -3 -4 -4 -4 -4 -5 -7 -12 -11 -7 -9 -11 -13 -12 -11 -7 -5 -6 -5 -5 -5 -5 -6 -6 -6 -6 -6 -6 -6 -7 -8
1 1 0 0 0 -0 -1 -1 -1 -1 -1 -1 -1 -3 -4 -8 -11 -8 -9 -9 -11 -10 -10 -10 -11 -11 -11 -11 -9 -5 -5 -5 -4 -5 -5 -6 -7 -7 -7 -7 -7 -7 -7 -7
1 1 0 -0 -0 -1 -1 -1 -1 -3 -5 -8 -12 -14 -13 -12 -11 -10 -10 -9 -9 -10 -11 -10 -10 -10 -9 -9 -8 -6 -5 -4 -4 -4 -5 -5 -6 -6 -7 -8 -7 -8 -8 -8
-0 -0 -1 -1 -1 -3 -4 -9 -11 -12 -11 -11 -10 -10 -8 -8 -7 -8 -9 -10 -11 -8 -6 -6 -7 -8 -8 -9 -9 -8 -6 -4 -4 -5 -5 -6 -7 -7 -6 -7 -7 -9 -8 -8
-3 -4 -5 -8 -10 -11 -10 -9 -8 -7 -7 -7 -8 -9 -9 -9 -9 -9 -9 -8 -7 -4 -4 -4 -5 -5 -5 -5 -5 -5 -5 -5 -6 -5 -6 -7 -7 -7 -7 -7 -7 -8 -8 -8
-5 -8 -9 -9 -9 -8 -7 -7 -7 -8 -8 -8 -8 -9 -9 -10 -12 -15 -17 -12 -9 -6 -7 -13 -18 -18 -12 -12 -9 -7 -6 -6 -5 -6 -6 -6 -7 -8 -8 -7 -8 -7 -7 -8
-3 -7 -8 -7 -6 -7 -8 -7 -7 -7 -8 -12 -15 -17 -18 -16 -13 -9 -9 -8 -7 -8 -10 -13 -13 -10 -9 -9 -8 -8 -7 -7 -6 -6 -6 -6 -7 -9 -7 -7 -7 -7 -8 -8
-5 -7 -6 -5 -5 -6 -6 -7 -8 -10 -13 -16 -17 -17 -18 -14 -9 -9 -9 -9 -10 -10 -11 -12 -11 -11 -11 -10 -10 -8 -8 -7 -7 -7 -6 -7 -9 -9 -9 -8 -8 -9 -9 -9
-7 -6 -5 -4 -5 -5 -7 -9 -12 -13 -16 -16 -13 -17 -16 -12 -11 -11 -11 -11 -12 -13 -13 -12 -12 -12 -12 -11 -10 -10 -9 -8 -7 -9 -10 -9 -9 -10 -10 -10 -10 -10 -11 -11
-4 -4 -5 -5 -7 -9 -11 -13 -14 -12 -14 -13 -11 -12 -12 -12 -12 -12 -13 -13 -13 -14 -13 -14 -14 -13 -13 -13 -13 -12 -12 -12 -11 -11 -12 -12 -11 -12 -12 -12 -12 -12 -12 -12
-5 -6 -7 -9 -11 -13 -16 -19 -19 -12 -13 -12 -12 -12 -12 -13 -14 -14 -14 -15 -15 -15 -15 -15 -15 -15 -14 -14 -14 -14 -14 -13 -13 -13 -13 -13 -13 -13 -13 -14 -14 -14 -14 -15
-8 -9 -9 -10 -13 -18 -23 -22 -15 -14 -12 -14 -14 -13 -13 -14 -15 -15 -15 -16 -16 -16 -16 -16 -17 -16 -16 -15 -15 -15 -15 -15 -15 -15 -15 -15 -16 -17 -19 -20 -21 -22 -22 -22
Wind_Speed
12 5 5 8 9 13 16 15 13 11 11 8 6 6 7 10 13 20 22 25 28 27 27 27 27 27 23 19 18 17 14 12 11 11 11 12 13 13 13 13 12 12 13 14
5 8 8 11 12 13 14 16 16 16 15 12 11 3 9 8 12 16 20 24 26 27 27 28 28 28 23 20 19 17 14 12 11 11 12 14 14 14 14 14 13 13 14 15
5 3 4 6 15 16 15 16 12 15 15 9 3 6 9 10 11 15 17 21 25 27 28 28 28 26 23 21 18 17 13 11 11 11 12 14 14 16 15 15 14 14 14 14
1 1 1 4 1 4 8 14 16 14 13 11 6 8 8 9 11 14 15 18 22 24 25 25 25 25 22 20 18 15 12 10 11 12 13 15 16 17 17 17 16 15 14 14
3 6 8 9 5 1 3 6 6 7 7 5 3 7 14 16 12 11 12 15 18 20 21 23 25 24 22 19 16 12 12 12 11 12 14 16 17 17 18 17 17 17 15 13
3 3 4 4 4 1 1 6 7 6 5 4 2 6 9 3 5 9 12 14 17 18 20 22 23 24 22 21 15 11 12 11 13 13 15 16 17 18 18 18 18 17 15 12
6 3 5 3 3 2 4 3 5 8 10 7 7 10 10 9 10 12 14 14 14 17 19 19 19 20 17 12 9 9 9 14 12 13 16 17 18 17 18 18 17 14 15 13
2 2 5 7 6 1 4 6 7 9 10 9 13 15 17 15 14 13 13 13 11 12 10 11 12 12 10 8 6 11 15 11 12 14 15 15 16 17 18 17 14 12 14 11
5 1 5 7 4 4 6 9 11 12 14 14 16 17 18 18 14 11 8 6 6 10 14 14 9 7 5 3 8 15 18 13 13 14 15 15 16 14 14 13 12 11 11 12
1 3 5 7 10 9 8 8 10 12 14 14 15 16 17 15 8 5 3 4 8 11 14 11 9 3 2 7 14 18 15 14 15 16 16 21 13 11 14 13 12 12 12 11
6 11 8 6 6 4 7 9 11 11 11 12 12 14 13 5 1 4 8 9 10 10 9 7 6 2 7 13 15 15 17 16 15 16 14 14 14 13 14 13 14 14 14 13
3 7 6 8 8 8 9 7 6 7 8 7 9 5 3 8 8 10 11 11 9 8 8 6 3 7 13 15 16 15 15 14 14 14 14 14 15 17 15 15 16 21 21 22
6 10 9 8 4 7 6 8 9 10 10 10 12 12 12 12 10 11 11 7 5 5 3 3 8 14 15 14 14 14 15 16 16 15 14 16 20 21 20 13 16 18 19 22
5 7 4 9 6 8 9 12 12 13 12 10 8 12 15 14 10 6 4 3 2 2 8 13 15 16 14 14 15 16 17 16 18 16 16 20 21 22 22 21 20 20 20 20
7 7 8 8 9 10 9 7 11 15 14 15 12 12 9 7 5 2 1 5 9 12 12 15 17 16 14 17 18 18 17 19 20 20 22 24 23 23 24 23 23 22 20 23
6 8 9 10 10 11 11 13 14 14 11 10 8 7 4 3 4 6 9 11 14 14 14 17 21 21 21 21 20 19 21 22 23 23 23 23 22 20 22 24 23 23 22 20
6 7 10 12 12 13 14 14 11 8 6 6 5 6 9 10 12 11 11 13 16 17 19 22 21 19 20 23 24 23 23 25 26 27 27 26 25 27 25 24 26 27 27 27
12 13 16 16 14 13 10 7 4 3 5 8 10 10 10 10 10 11 12 13 15 17 17 17 19 20 22 24 26 28 29 30 30 31 30 29 31 29 28 28 28 28 29 28
17 16 14 12 9 7 5 4 5 6 7 7 8 8 9 9 11 12 15 17 19 21 17 22 25 26 28 28 28 29 31 31 32 33 31 31 29 31 31 30 26 25 26 25
12 11 10 8 6 5 6 6 6 6 7 8 8 9 11 14 16 18 20 22 20 19 24 27 29 31 28 26 27 31 33 32 33 32 31 27 29 31 32 31 28 25 24 23
10 8 7 6 6 6 6 6 5 6 7 10 13 16 18 20 22 24 24 22 20 21 26 29 32 32 29 30 30 33 34 36 40 35 35 39 26 27 27 25 24 23 21 19
7 6 5 4 3 3 3 4 5 5 8 12 16 17 19 19 21 20 20 21 22 27 34 34 34 32 34 35 35 33 33 34 35 35 38 27 20 22 22 23 19 15 16 17
6 5 2 2 1 1 1 3 6 9 13 16 17 19 20 19 17 21 24 21 25 28 31 30 31 34 36 36 34 35 33 31 32 31 28 24 18 16 14 10 11 15 20 22
7 4 4 3 2 2 3 7 10 13 15 15 16 19 20 20 19 17 21 24 25 29 27 25 32 33 30 27 25 23 26 25 18 6 7 12 12 15 16 17 19 20 20 20
4 4 2 1 2 3 6 10 10 11 15 14 15 15 17 16 18 20 20 21 23 24 23 24 26 25 23 22 19 17 16 14 12 10 8 9 11 14 14 15 15 16 18 18
4 4 2 1 2 5 8 11 12 12 15 14 15 15 15 15 16 18 19 19 20 21 21 23 24 24 22 21 20 18 17 16 14 13 12 13 13 14 14 16 16 16 16 17
5 4 2 2 6 9 12 13 13 13 13 14 14 14 15 17 17 17 18 19 19 20 20 20 20 22 22 21 20 19 18 18 18 17 16 15 15 15 16 16 17 16 17 17
Wind_Direction
261 286 290 281 256 222 233 237 257 266 278 299 313 294 259 222 234 233 223 221 219 215 214 210 206 204 202 201 202 201 208 220 234 246 260 268 271 283 287 295 298 296 295 289
250 241 260 262 254 251 240 249 255 263 281 308 332 294 271 251 240 233 227 223 219 219 218 214 210 208 205 206 201 204 213 222 235 249 263 270 274 282 287 295 298 297 297 295
243 2 297 290 239 249 247 248 253 266 273 14 297 267 275 265 244 242 234 225 221 221 220 217 214 210 209 205 204 207 218 233 249 261 271 273 278 282 282 289 295 296 297 295
224 218 287 257 24 306 272 264 254 265 270 294 294 319 296 276 261 240 236 232 229 225 223 220 217 213 211 207 210 213 222 243 261 273 279 281 280 283 283 284 292 293 292 285
184 220 286 280 177 234 233 281 37 324 325 331 2 296 277 238 235 241 247 246 238 231 225 221 218 213 207 208 215 221 265 255 270 282 284 285 284 286 285 282 288 290 287 281
164 214 234 78 80 100 213 251 64 37 15 350 280 296 319 25 262 261 266 251 238 229 224 222 219 209 207 205 210 233 243 269 287 293 291 290 290 289 285 279 282 283 274 266
204 252 283 71 137 202 241 44 13 344 322 297 278 302 339 322 309 288 272 255 238 226 224 223 212 204 202 228 224 236 249 288 292 294 294 291 292 291 285 279 277 272 260 263
167 208 259 141 140 214 29 313 321 318 315 301 295 296 296 294 298 294 281 255 233 226 214 204 192 199 190 176 223 278 288 286 290 288 290 293 294 294 289 282 271 263 255 259
216 247 113 179 315 304 305 302 306 307 303 299 297 296 301 301 294 297 288 238 206 184 161 155 144 151 160 242 266 289 286 290 293 294 297 296 294 293 283 271 262 258 252 267
304 155 244 259 281 285 289 285 298 304 306 305 306 305 304 302 283 278 220 187 163 149 140 139 157 178 359 302 291 287 289 296 297 301 296 305 297 286 278 270 261 254 253 249
247 274 280 280 285 300 312 312 306 311 317 315 313 311 309 307 183 127 130 108 131 138 126 116 78 13 297 285 284 293 298 302 296 299 297 298 296 293 261 260 258 256 249 248
254 359 329 312 357 331 318 343 348 347 349 7 355 359 73 105 112 124 118 127 133 106 75 49 352 298 291 291 290 295 301 301 300 293 293 288 294 291 288 280 261 253 248 250
299 315 306 303 36 25 59 58 63 64 65 67 68 88 114 122 138 133 139 122 88 80 59 297 275 278 284 289 295 299 300 298 300 297 295 288 285 289 289 287 274 268 263 264
357 331 199 42 59 65 81 82 82 83 81 83 85 97 112 111 111 105 89 84 83 253 254 266 288 291 290 294 298 299 300 305 304 296 290 281 279 286 287 280 273 279 278 274
40 60 89 97 91 89 96 96 81 84 86 92 92 100 97 87 80 80 293 279 269 279 298 300 296 291 284 291 294 293 292 291 290 285 276 278 278 280 281 282 277 273 270 267
89 87 94 97 93 91 94 92 91 91 88 84 73 71 51 9 330 306 300 296 301 300 299 298 301 300 291 288 285 282 287 290 286 283 285 292 295 289 275 275 278 274 274 274
140 99 101 96 99 101 99 97 91 87 71 45 9 330 325 314 312 310 308 297 304 302 303 305 309 302 292 289 286 280 280 281 276 283 282 291 293 292 294 284 278 277 274 275
99 104 107 107 107 106 100 92 82 49 2 339 334 337 341 341 338 331 323 317 315 315 318 317 315 312 304 298 292 282 275 275 273 271 276 282 290 289 291 287 284 284 282 278
106 105 105 101 102 112 97 48 22 14 14 9 8 6 2 354 343 335 328 325 322 324 321 306 305 304 302 301 298 294 287 279 275 280 283 286 285 288 289 286 285 286 282 283
111 107 103 98 90 76 64 50 46 37 26 17 9 358 349 339 330 323 319 316 324 323 307 305 301 303 305 303 302 299 295 286 281 276 285 284 285 290 291 285 283 284 285 283
116 110 99 93 79 67 64 58 47 35 18 1 349 338 330 323 319 319 319 320 322 308 301 306 310 311 310 305 291 285 286 288 282 270 284 284 275 288 284 282 286 282 280 282
121 123 113 93 73 55 42 26 18 4 345 337 334 332 331 332 330 332 330 327 316 309 314 316 317 315 311 310 309 300 296 291 285 284 281 266 271 296 291 276 277 273 280 283
143 147 155 192 230 320 331 318 319 325 335 337 335 333 332 329 330 326 324 320 317 314 316 321 314 307 308 310 306 302 296 302 303 294 269 254 264 290 288 274 271 279 283 278
171 204 212 211 243 272 309 322 336 330 332 339 331 330 332 333 327 327 318 321 323 319 328 317 311 317 319 320 320 316 308 298 281 233 235 255 271 290 291 288 285 286 286 284
206 203 198 147 58 1 337 330 339 332 330 335 333 334 333 334 329 327 331 330 332 336 338 336 339 343 344 343 342 335 322 316 309 304 317 322 315 310 304 299 297 294 294 294
135 121 154 223 325 332 330 331 333 333 332 334 334 338 338 334 333 332 331 335 338 339 341 341 341 343 345 344 343 342 342 339 338 337 332 325 317 308 305 303 304 303 301 301
149 129 84 18 335 333 330 333 335 335 335 328 336 335 334 331 333 335 333 333 335 337 338 338 339 338 339 340 339 338 337 336 332 331 329 327 323 318 315 313 311 313 309 306
Height
1478 1482 1481 1479 1478 1479 1483 1482 1488 1482 1475 1470 1472 1475 1478 1482 1487 1487 1491 1496 1500 1505 1509 1511 1514 1516 1517 1518 1519 1523 1525 1525 1526 1525 1524 1524 1522 1520 1518 1515 1513 1512 1510 1508
1493 1483 1485 1484 1478 1476 1475 1477 1474 1473 1475 1470 1474 1477 1481 1482 1485 1486 1489 1493 1497 1501 1504 1507 1509 1511 1513 1514 1516 1519 1520 1520 1520 1520 1520 1519 1517 1516 1514 1512 1510 1508 1506 1504
1492 1495 1493 1503 1485 1476 1473 1471 1474 1479 1473 1474 1477 1480 1481 1482 1484 1486 1487 1490 1492 1495 1499 1502 1505 1508 1509 1511 1513 1514 1516 1517 1517 1515 1514 1513 1512 1511 1509 1507 1505 1503 1501 1500
1495 1510 1517 1470 1471 1472 1472 1468 1467 1470 1471 1473 1477 1481 1482 1482 1481 1483 1485 1487 1489 1492 1495 1498 1501 1503 1506 1507 1509 1510 1511 1511 1512 1511 1510 1509 1508 1506 1505 1504 1501 1499 1496 1495
1503 1490 1477 1471 1471 1475 1476 1473 1469 1473 1472 1474 1481 1483 1479 1476 1479 1482 1484 1485 1487 1489 1491 1494 1497 1499 1501 1504 1506 1508 1509 1510 1509 1507 1505 1505 1503 1501 1500 1498 1497 1495 1493 1491
1498 1503 1506 1476 1477 1479 1478 1478 1478 1478 1479 1480 1482 1483 1478 1480 1481 1482 1482 1482 1483 1485 1487 1490 1492 1495 1496 1497 1498 1501 1505 1507 1506 1505 1503 1501 1499 1496 1494 1492 1490 1489 1488 1486
1494 1497 1482 1471 1478 1480 1485 1485 1481 1482 1481 1481 1482 1481 1481 1481 1480 1480 1480 1480 1480 1482 1484 1487 1489 1492 1495 1499 1499 1501 1498 1500 1501 1500 1499 1495 1493 1491 1489 1486 1484 1482 1483 1482
1493 1505 1497 1477 1480 1483 1480 1480 1480 1481 1480 1481 1482 1481 1480 1479 1479 1478 1478 1478 1479 1481 1484 1488 1491 1494 1492 1490 1496 1499 1497 1494 1495 1494 1492 1489 1486 1484 1485 1484 1481 1479 1477 1477
1479 1475 1475 1477 1477 1478 1480 1480 1480 1480 1480 1479 1478 1477 1477 1475 1476 1476 1477 1478 1479 1480 1480 1483 1487 1488 1491 1492 1492 1493 1493 1490 1490 1489 1487 1484 1481 1478 1478 1478 1477 1475 1474 1473
1479 1470 1473 1475 1476 1477 1478 1479 1479 1478 1477 1477 1476 1475 1474 1473 1474 1476 1477 1478 1480 1480 1483 1484 1483 1485 1488 1492 1492 1491 1489 1486 1484 1483 1482 1478 1476 1475 1475 1473 1472 1472 1471 1470
1474 1471 1470 1473 1475 1476 1477 1477 1477 1476 1476 1475 1475 1474 1472 1473 1475 1476 1477 1479 1482 1483 1483 1482 1484 1488 1489 1488 1486 1485 1483 1481 1480 1479 1477 1476 1474 1470 1470 1469 1468 1467 1466 1466
1474 1471 1473 1473 1475 1477 1477 1476 1476 1476 1475 1475 1474 1473 1473 1474 1477 1477 1479 1480 1480 1481 1482 1484 1485 1485 1484 1483 1483 1481 1478 1477 1476 1475 1474 1472 1469 1467 1464 1461 1461 1461 1461 1460
1474 1475 1476 1476 1476 1477 1476 1476 1476 1475 1475 1476 1475 1475 1473 1473 1476 1477 1479 1480 1481 1482 1483 1483 1482 1480 1480 1479 1478 1477 1475 1473 1471 1470 1469 1469 1466 1463 1459 1457 1455 1454 1454 1454
1475 1474 1473 1475 1477 1478 1478 1478 1476 1474 1473 1475 1475 1476 1477 1478 1480 1481 1481 1481 1481 1481 1481 1479 1478 1477 1477 1476 1474 1472 1470 1468 1467 1466 1464 1463 1461 1457 1455 1453 1450 1449 1448 1447
1476 1475 1476 1477 1478 1479 1479 1477 1477 1477 1478 1479 1481 1480 1481 1482 1483 1483 1483 1483 1480 1479 1478 1478 1476 1475 1474 1472 1471 1470 1467 1465 1463 1461 1458 1456 1454 1452 1449 1446 1444 1442 1442 1440
1476 1477 1477 1478 1479 1479 1479 1480 1480 1482 1484 1485 1485 1485 1485 1485 1484 1484 1482 1481 1479 1478 1477 1476 1474 1473 1470 1468 1467 1465 1462 1460 1457 1454 1452 1449 1447 1445 1442 1440 1437 1435 1434 1433
1476 1478 1479 1480 1481 1482 1482 1484 1485 1486 1487 1487 1486 1485 1485 1483 1482 1481 1480 1478 1476 1474 1473 1471 1468 1467 1465 1463 1460 1459 1457 1454 1451 1448 1445 1444 1441 1439 1436 1434 1431 1429 1427 1426
1476 1478 1480 1481 1484 1485 1486 1487 1487 1487 1487 1486 1485 1484 1483 1482 1480 1479 1477 1476 1473 1472 1470 1467 1464 1461 1460 1457 1455 1452 1449 1446 1443 1440 1438 1436 1433 1430 1428 1425 1423 1421 1419 1418
1479 1481 1483 1485 1486 1486 1487 1487 1486 1486 1486 1485 1484 1483 1482 1481 1480 1478 1476 1473 1471 1467 1467 1464 1460 1456 1453 1451 1448 1444 1440 1437 1434 1431 1429 1427 1424 1422 1419 1417 1415 1413 1411 1409
1483 1484 1485 1485 1486 1486 1486 1486 1486 1486 1485 1485 1484 1482 1481 1479 1477 1475 1473 1470 1469 1465 1460 1457 1453 1450 1446 1443 1440 1435 1431 1428 1425 1422 1419 1417 1415 1413 1410 1408 1406 1405 1403 1402
1484 1485 1486 1486 1486 1486 1486 1486 1486 1486 1485 1484 1482 1481 1479 1477 1474 1471 1467 1464 1463 1459 1454 1450 1446 1441 1437 1433 1429 1426 1421 1418 1414 1411 1409 1407 1405 1403 1401 1399 1398 1397 1396 1395
1484 1485 1486 1486 1486 1486 1487 1487 1486 1486 1485 1483 1481 1478 1475 1473 1470 1467 1466 1463 1459 1454 1448 1442 1438 1434 1429 1424 1419 1415 1411 1408 1405 1402 1400 1398 1397 1395 1392 1391 1391 1391 1390 1390
1483 1484 1485 1486 1486 1486 1486 1486 1485 1484 1482 1480 1477 1475 1472 1469 1467 1463 1459 1458 1452 1447 1441 1437 1431 1425 1420 1415 1411 1406 1401 1398 1395 1392 1390 1389 1389 1388 1387 1386 1385 1385 1384 1383
1482 1483 1484 1484 1485 1485 1484 1484 1483 1481 1479 1477 1475 1471 1468 1464 1462 1460 1456 1450 1446 1439 1435 1430 1423 1418 1413 1408 1403 1399 1395 1391 1387 1384 1383 1381 1381 1381 1380 1380 1378 1376 1376 1375
1482 1483 1483 1484 1484 1484 1483 1482 1481 1479 1476 1474 1471 1468 1465 1462 1459 1454 1450 1445 1440 1434 1430 1424 1419 1414 1409 1405 1400 1396 1392 1388 1385 1383 1381 1378 1377 1378 1376 1376 1374 1370 1369 1369
1482 1483 1482 1482 1482 1481 1480 1479 1477 1475 1472 1470 1467 1464 1462 1459 1455 1450 1446 1441 1436 1431 1427 1422 1417 1412 1408 1404 1400 1396 1392 1388 1385 1382 1379 1377 1375 1374 1373 1372 1369 1366 1364 1363
1480 1481 1482 1482 1480 1479 1477 1475 1473 1471 1469 1465 1463 1462 1459 1455 1451 1447 1443 1439 1434 1429 1424 1420 1416 1411 1407 1403 1399 1395 1392 1388 1384 1381 1378 1375 1373 1371 1369 1367 1364 1361 1358 1357